TimeCST,TemperatureF,Dew PointF,Humidity,Sea Level PressureIn,VisibilityMPH,Wind Direction,Wind SpeedMPH,Gust SpeedMPH,PrecipitationIn,Events,Conditions,WindDirDegrees,DateUTC
12:53 AM,39.0,28.0,65,30.30,10.0,South,10.4,-,N/A,,Clear,180,2012-11-15 06:53:00
1:53 AM,39.0,28.0,65,30.29,10.0,South,9.2,-,N/A,,Clear,180,2012-11-15 07:53:00
2:53 AM,37.9,27.0,65,30.29,10.0,South,9.2,-,N/A,,Clear,180,2012-11-15 08:53:00
3:53 AM,37.9,27.0,65,30.29,10.0,South,9.2,-,N/A,,Partly Cloudy,180,2012-11-15 09:53:00
4:53 AM,37.0,27.0,67,30.29,10.0,South,8.1,-,N/A,,Mostly Cloudy,180,2012-11-15 10:53:00
5:53 AM,35.1,26.1,70,30.30,10.0,South,6.9,-,N/A,,Clear,180,2012-11-15 11:53:00
6:53 AM,34.0,25.0,70,30.30,10.0,South,5.8,-,N/A,,Clear,170,2012-11-15 12:53:00
7:53 AM,36.0,26.1,67,30.32,10.0,South,10.4,-,N/A,,Clear,170,2012-11-15 13:53:00
8:53 AM,39.9,27.0,60,30.32,10.0,South,9.2,-,N/A,,Clear,190,2012-11-15 14:53:00
9:53 AM,45.0,28.9,53,30.32,10.0,SSW,9.2,-,N/A,,Clear,200,2012-11-15 15:53:00
10:53 AM,52.0,30.0,43,30.31,10.0,South,11.5,-,N/A,,Clear,190,2012-11-15 16:53:00
11:53 AM,55.0,28.9,37,30.30,10.0,SW,10.4,-,N/A,,Clear,230,2012-11-15 17:53:00
12:53 PM,57.0,30.0,36,30.28,10.0,SW,11.5,-,N/A,,Clear,220,2012-11-15 18:53:00
1:53 PM,57.9,30.9,36,30.28,10.0,West,9.2,-,N/A,,Clear,260,2012-11-15 19:53:00
2:53 PM,57.0,30.9,37,30.28,10.0,SW,9.2,-,N/A,,Partly Cloudy,230,2012-11-15 20:53:00
3:53 PM,55.9,32.0,40,30.28,10.0,SW,8.1,-,N/A,,Clear,230,2012-11-15 21:53:00
4:53 PM,51.1,32.0,48,30.30,10.0,WNW,4.6,-,N/A,,Clear,290,2012-11-15 22:53:00
5:53 PM,48.0,30.9,52,30.32,10.0,NW,5.8,-,0.00,,Clear,310,2012-11-15 23:53:00
6:53 PM,39.0,30.0,70,30.34,10.0,West,3.5,-,N/A,,Clear,270,2012-11-16 00:53:00
7:53 PM,39.0,30.9,73,30.35,10.0,West,4.6,-,N/A,,Clear,260,2012-11-16 01:53:00
8:53 PM,37.9,30.0,73,30.37,10.0,NW,9.2,-,N/A,,Clear,320,2012-11-16 02:53:00
9:53 PM,37.0,30.9,79,30.37,10.0,North,-9999.0,-,N/A,,Clear,0,2012-11-16 03:53:00
10:53 PM,37.0,32.0,82,30.38,10.0,NNW,9.2,-,N/A,,Clear,340,2012-11-16 04:53:00
11:53 PM,34.0,30.0,85,30.40,10.0,NNW,5.8,-,N/A,,Clear,340,2012-11-16 05:53:00